Previsão horária em Abakan

Hoje, 14 Abril, Quarta-feira

Tempo Temperatura Precipitação Vento Pressão Humidade
00:00 +3°C° 0 mm 1 m/s 748 mmHg 86%
01:00 +1°C° 0 mm 2 m/s 747 mmHg 84%
02:00 0°C° 0 mm 3 m/s 747 mmHg 83%
03:00 0°C° 0 mm 3 m/s 747 mmHg 81%
04:00 -1°C° 0.1 mm 4 m/s 747 mmHg 77%
05:00 -1°C° 0.1 mm 5 m/s 747 mmHg 72%
06:00 0°C° 0 mm 5 m/s 747 mmHg 67%
07:00 0°C° 0.1 mm 5 m/s 748 mmHg 65%
08:00 +1°C° 0.1 mm 4 m/s 748 mmHg 64%
09:00 +1°C° 0.1 mm 4 m/s 748 mmHg 62%
10:00 +3°C° 0.1 mm 5 m/s 747 mmHg 56%
11:00 +5°C° 0.1 mm 5 m/s 747 mmHg 51%
12:00 +5°C° 0 mm 6 m/s 746 mmHg 44%
13:00 +5°C° 0 mm 6 m/s 746 mmHg 44%
14:00 +5°C° 0 mm 7 m/s 745 mmHg 43%
15:00 +5°C° 0 mm 8 m/s 745 mmHg 43%
16:00 +4°C° 0 mm 8 m/s 744 mmHg 48%
17:00 +4°C° 0 mm 8 m/s 744 mmHg 54%
18:00 +2°C° 0 mm 9 m/s 743 mmHg 59%
19:00 +1°C° 0.1 mm 9 m/s 743 mmHg 60%
20:00 +1°C° 0.1 mm 9 m/s 742 mmHg 62%
21:00 +1°C° 0.1 mm 9 m/s 742 mmHg 64%
22:00 +1°C° 0.1 mm 9 m/s 742 mmHg 63%
23:00 +1°C° 0.1 mm 8 m/s 742 mmHg 62%

Amanhã, 15 Abril, Quinta-feira

Tempo Temperatura Precipitação Vento Pressão Humidade
00:00 +3°C° 0.1 mm 7 m/s 742 mmHg 61%
01:00 +2°C° 0.1 mm 7 m/s 742 mmHg 64%
02:00 +2°C° 0.1 mm 6 m/s 743 mmHg 67%
03:00 +2°C° 0.1 mm 6 m/s 743 mmHg 70%
04:00 +2°C° 0.1 mm 5 m/s 744 mmHg 73%
05:00 +3°C° 0.1 mm 3 m/s 744 mmHg 77%
06:00 +4°C° 0.1 mm 2 m/s 745 mmHg 80%
07:00 +4°C° 0.1 mm 2 m/s 745 mmHg 80%
08:00 +4°C° 0.1 mm 2 m/s 746 mmHg 80%
09:00 +4°C° 0.1 mm 2 m/s 746 mmHg 80%
10:00 +6°C° 0 mm 1 m/s 746 mmHg 78%
11:00 +6°C° 0 mm 1 m/s 746 mmHg 76%
12:00 +7°C° 0 mm 1 m/s 746 mmHg 73%
13:00 +8°C° 0 mm 1 m/s 746 mmHg 69%
14:00 +8°C° 0 mm 2 m/s 746 mmHg 65%
15:00 +9°C° 0 mm 2 m/s 745 mmHg 61%
16:00 +8°C° 0 mm 3 m/s 745 mmHg 67%
17:00 +6°C° 0 mm 4 m/s 745 mmHg 72%
18:00 +6°C° 0 mm 5 m/s 744 mmHg 78%
19:00 +5°C° 0 mm 4 m/s 744 mmHg 82%
20:00 +4°C° 0 mm 3 m/s 744 mmHg 86%
21:00 +4°C° 0 mm 2 m/s 744 mmHg 89%
22:00 +4°C° 0 mm 2 m/s 744 mmHg 90%
23:00 +5°C° 0 mm 1 m/s 743 mmHg 91%

Depois de amanhã, 16 Abril, Sexta-feira

Tempo Temperatura Precipitação Vento Pressão Humidade
00:00 +4°C° 0 mm 1 m/s 743 mmHg 92%
01:00 +4°C° 0 mm 1 m/s 743 mmHg 92%
02:00 +4°C° 0 mm 1 m/s 743 mmHg 91%
03:00 +4°C° 0 mm 1 m/s 743 mmHg 91%
04:00 +4°C° 0 mm 1 m/s 742 mmHg 90%
05:00 +4°C° 0 mm 1 m/s 742 mmHg 89%
06:00 +4°C° 0 mm 2 m/s 742 mmHg 88%
07:00 +5°C° 0 mm 3 m/s 742 mmHg 79%
08:00 +7°C° 0 mm 4 m/s 742 mmHg 69%
09:00 +9°C° 0 mm 5 m/s 741 mmHg 60%
10:00 +10°C° 0 mm 5 m/s 741 mmHg 54%
11:00 +11°C° 0 mm 6 m/s 740 mmHg 49%
12:00 +14°C° 0 mm 7 m/s 740 mmHg 43%
13:00 +14°C° 0 mm 7 m/s 739 mmHg 43%
14:00 +14°C° 0 mm 7 m/s 739 mmHg 43%
15:00 +14°C° 0 mm 7 m/s 739 mmHg 43%
16:00 +14°C° 0 mm 7 m/s 738 mmHg 46%
17:00 +12°C° 0 mm 7 m/s 738 mmHg 48%
18:00 +13°C° 0 mm 6 m/s 738 mmHg 51%
19:00 +11°C° 0 mm 6 m/s 738 mmHg 56%
20:00 +10°C° 0 mm 5 m/s 738 mmHg 62%
21:00 +9°C° 0 mm 5 m/s 737 mmHg 67%
22:00 +8°C° 0 mm 5 m/s 737 mmHg 70%
23:00 +8°C° 0 mm 4 m/s 737 mmHg 72%

17 Abril, Sábado

Tempo Temperatura Precipitação Vento Pressão Humidade
00:00 +7°C° 0 mm 4 m/s 737 mmHg 74%
01:00 +7°C° 0 mm 4 m/s 736 mmHg 75%
02:00 +7°C° 0 mm 4 m/s 736 mmHg 76%
03:00 +6°C° 0 mm 4 m/s 736 mmHg 77%
04:00 +4°C° 0.1 mm 4 m/s 737 mmHg 80%
05:00 +2°C° 0.1 mm 5 m/s 738 mmHg 83%
06:00 -1°C° 0.1 mm 6 m/s 738 mmHg 85%
07:00 0°C° 0.5 mm 5 m/s 739 mmHg 85%
08:00 0°C° 0.5 mm 5 m/s 739 mmHg 84%
09:00 -1°C° 0.5 mm 4 m/s 740 mmHg 84%
10:00 0°C° 0.4 mm 4 m/s 740 mmHg 84%
11:00 0°C° 0.4 mm 4 m/s 740 mmHg 84%
12:00 0°C° 0.4 mm 4 m/s 740 mmHg 83%
13:00 0°C° 0.3 mm 4 m/s 739 mmHg 77%
14:00 0°C° 0.3 mm 4 m/s 739 mmHg 71%
15:00 +2°C° 0.3 mm 3 m/s 739 mmHg 65%
16:00 +2°C° 0 mm 3 m/s 739 mmHg 63%
17:00 +3°C° 0 mm 2 m/s 738 mmHg 62%
18:00 +4°C° 0 mm 1 m/s 738 mmHg 60%
19:00 +3°C° 0 mm 1 m/s 738 mmHg 63%
20:00 +2°C° 0 mm 1 m/s 737 mmHg 65%
21:00 +1°C° 0 mm 0 m/s 737 mmHg 68%
22:00 0°C° 0 mm 0 m/s 737 mmHg 70%
23:00 +1°C° 0 mm 1 m/s 737 mmHg 73%

18 Abril, Domingo

Tempo Temperatura Precipitação Vento Pressão Humidade
00:00 +1°C° 0 mm 1 m/s 736 mmHg 76%
01:00 +1°C° 0 mm 1 m/s 736 mmHg 77%
02:00 +1°C° 0 mm 1 m/s 737 mmHg 79%
03:00 +1°C° 0 mm 1 m/s 737 mmHg 81%
04:00 +1°C° 0 mm 1 m/s 738 mmHg 82%
05:00 +1°C° 0 mm 1 m/s 738 mmHg 82%
06:00 +2°C° 0 mm 1 m/s 739 mmHg 83%
07:00 +2°C° 0 mm 1 m/s 739 mmHg 77%
08:00 +3°C° 0 mm 1 m/s 740 mmHg 71%
09:00 +4°C° 0 mm 1 m/s 740 mmHg 65%
10:00 +5°C° 0 mm 1 m/s 740 mmHg 60%
11:00 +5°C° 0 mm 1 m/s 740 mmHg 56%
12:00 +5°C° 0 mm 2 m/s 740 mmHg 52%
13:00 +5°C° 0 mm 2 m/s 740 mmHg 49%
14:00 +6°C° 0 mm 2 m/s 740 mmHg 46%
15:00 +7°C° 0 mm 1 m/s 739 mmHg 43%
16:00 +6°C° 0 mm 2 m/s 739 mmHg 48%
17:00 +5°C° 0 mm 3 m/s 739 mmHg 52%
18:00 +4°C° 0 mm 3 m/s 739 mmHg 57%
19:00 +4°C° 0 mm 3 m/s 738 mmHg 65%
20:00 +3°C° 0 mm 4 m/s 738 mmHg 73%
21:00 +1°C° 0 mm 4 m/s 737 mmHg 80%
22:00 +2°C° 0 mm 3 m/s 736 mmHg 81%
23:00 +2°C° 0 mm 3 m/s 736 mmHg 81%

19 Abril, Segunda-feira

Tempo Temperatura Precipitação Vento Pressão Humidade
00:00 +2°C° 0 mm 2 m/s 735 mmHg 81%
01:00 +2°C° 0 mm 2 m/s 734 mmHg 82%
02:00 +3°C° 0 mm 1 m/s 733 mmHg 83%
03:00 +2°C° 0 mm 1 m/s 732 mmHg 84%
04:00 +2°C° 0.1 mm 2 m/s 731 mmHg 84%
05:00 +2°C° 0.1 mm 2 m/s 731 mmHg 85%
06:00 +2°C° 0.1 mm 2 m/s 730 mmHg 85%
07:00 +3°C° 0.1 mm 3 m/s 730 mmHg 79%
08:00 +4°C° 0.1 mm 3 m/s 729 mmHg 73%
09:00 +6°C° 0.1 mm 4 m/s 729 mmHg 67%
10:00 +7°C° 0.1 mm 4 m/s 728 mmHg 64%
11:00 +10°C° 0.1 mm 4 m/s 728 mmHg 61%
12:00 +11°C° 0.1 mm 3 m/s 727 mmHg 58%
13:00 +9°C° 0.7 mm 6 m/s 728 mmHg 53%
14:00 +7°C° 0.7 mm 8 m/s 730 mmHg 49%
15:00 +6°C° 0.7 mm 11 m/s 731 mmHg 44%
16:00 +5°C° 0 mm 10 m/s 732 mmHg 47%
17:00 +3°C° 0 mm 9 m/s 733 mmHg 50%
18:00 +1°C° 0 mm 8 m/s 734 mmHg 53%
19:00 0°C° 0 mm 8 m/s 734 mmHg 55%
20:00 0°C° 0 mm 7 m/s 735 mmHg 56%
21:00 -1°C° 0 mm 7 m/s 735 mmHg 58%
22:00 -2°C° 0 mm 6 m/s 736 mmHg 58%
23:00 -2°C° 0 mm 6 m/s 736 mmHg 57%
Mostrar mais

Necessitamos do seu Consentimento

A Meteoprog e os seus Fornecedores de Serviços podem armazenar e aceder a dados pessoais como cookies, identificadores do dispositivo ou outras tecnologias semelhantes existentes no seu dispositivo e processar estes dados para personalizar conteúdos e anúncios, assim como funcionalidades nas redes sociais e análise de tráfego.

  • Armazenar e/ou aceder a informações no seu dispositivo

    Os cookies, identificadores do dispositivo ou outras informações podem ser armazenados ou acedidos no seu dispositivo, para os fins acima indicados.

  • Anúncios e conteúdos personalizados, medição de anúncios e conteúdos, dados sobre o público-alvo e desenvolvimento de produtos

    Os anúncios e os conteúdos podem ser personalizados com base num perfil. Podem ser adicionados dados adicionais para uma maior personalização dos anúncios e dos conteúdos. A eficácia dos anúncios e dos conteúdos pode ser medida. Podem ser obtidas informações sobre o público que visualizou os anúncios e os conteúdos. Estes dados podem ser usados para desenvolver ou melhorar sistemas, softwares ou a experiência do utilizador.

Ao clicar em "Eu concordo”, permitirá o uso de cookies, identificadores do dispositivo e web beacons mencionados ou outras tecnologias semelhantes. As configurações do navegador do seu dispositivo podem ser alteradas.

Para certos fins, podem ser invocados interesses legítimos ao invés de consentimento. Pode ler mais informação sobre este assunto na nossa Política de Privacidade e Cookies.